NAKANO
         **** Don't distribute anyone except personal use only ****
                (C) Copyright 2009 OAA/ComputingSection
write mail from CFAD0::NAKANO on 2009-01-06 06:55:00(JST).
 




    C/2006 S5 (Hill)

Epoch 2007 Dec. 6.0 TT = JDT 2454440.5  

T 2007 Dec. 9.74846 TT                                  Nakano

q   2.6304410            (2000.0)            P               Q

z  +0.0102627      Peri.  182.10816     -0.23579883     -0.95639909

 +/-0.0000016      Node   281.56369     +0.89416501     -0.14406669

e   0.9730045      Incl.   10.13141     +0.38061510     -0.25405821

P 962 years

From 778 observations 2006 Sept. 14-2008 Feb. 10, mean residual 0".54.
               



NAKANO

         **** Don't distribute anyone except personal use only ****

                (C) Copyright 2008 OAA/ComputingSection

write mail from CFAD0::NAKANO on 2008-02-15 03:48:10(JST).



    C/2006 S5 (Hill)

Epoch 2007 Dec. 6.0 TT = JDT 2454440.5  

T 2007 Dec. 9.75004 TT                                  Nakano

q   2.6304308            (2000.0)            P               Q

z  +0.0102683      Peri.  182.10875     -0.23580619     -0.95639724

 +/-0.0000049      Node   281.56354     +0.89416408     -0.14407362

e   0.9729899      Incl.   10.13142     +0.38061270     -0.25406125

a  97.4 AU

P 961 years

From 305 observations 2006 Sept. 14-2007 Nov. 17, mean residual 0".64.



NAKANO

         **** Don't distribute anyone except personal use only ****

                (C) Copyright 2007 OAA/ComputingSection

write mail from CFAD0::NAKANO on 2007-11-30 09:05:11(JST).

 



    C/2006 S5 (Hill)

Epoch 2007 Dec. 6.0 TT = JDT 2454440.5  

T 2007 Dec. 9.74791 TT                                  Nakano

q   2.6304018            (2000.0)            P               Q

z  +0.0102512      Peri.  182.10993     -0.23581033     -0.95639596

 +/-0.0000067      Node   281.56262     +0.89416460     -0.14407760

e   0.9730353      Incl.   10.13147     +0.38060894     -0.25406381

P 963 years

From 196 observations 2006 Sept. 14-2007 Sept. 9, mean residual 0".60.



NAKANO

         **** Don't distribute anyone except personal use only ****

                (C) Copyright 2007 OAA/ComputingSection

write mail from CFAD0::NAKANO on 2007-09-16 02:42:41(JST).

 



◎C/2006 S5の軌道と予報位置



 上尾の門田健一氏より,1月17日以来,途絶えていたこの彗星の8月12日に

行なわれた観測が報告されました.氏の CCD全光度は,16.0等でした.彗星は,

今月に複数の観測者によっても観測されました.観測位置は,NK 1431(= HICQ 

2007)の軌道より,赤経方向に+15"のずれがありました.なお,彗星は,年始・

年末に,ほぼ,衝位置に来て14等級まで明るくなるでしょう.



    C/2006 S5 (Hill)

Epoch 2007 Dec. 6.0 TT = JDT 2454440.5  

T 2007 Dec. 9.74865 TT                                  Nakano

q   2.6304187            (2000.0)            P               Q

z  +0.0102584      Peri.  182.10956     -0.23580635     -0.95639700

 +/-0.0000085      Node   281.56276     +0.89416502     -0.14407392

e   0.9730162      Incl.   10.13146     +0.38061040     -0.25406197

P 962 years

From 191 observations 2006 Sept.14-2007 Aug. 13, mean residual 0".60.

 

Date/        TT  R.A.(2000) Decl.     Delta   r     Daily motion  Mag.  Moon Age

              h    h  m       。  ,                      ,  / PA 。  m1      。

2007 Aug. 20 18  05 50.33  +28 07.4   3.250  2.872    23.8 /  92  16.0  147  .48

          21 18  05 52.13  +28 06.5   3.235  2.868    23.8 /  92  16.0  158  .57

          22 18  05 53.93  +28 05.4   3.221  2.864    23.8 /  93  16.0  170  .67

          23 18  05 55.72  +28 04.3   3.206  2.860    23.7 /  93  16.0  178  .76

          24 18  05 57.51  +28 03.1   3.192  2.856    23.7 /  93  15.9  165  .84

          25 18  05 59.29  +28 01.8   3.177  2.852    23.6 /  93  15.9  153  .91

          26 18  06 01.07  +28 00.4   3.163  2.848    23.6 /  93  15.9  139  .96

          27 18  06 02.85  +27 58.9   3.148  2.844    23.5 /  94  15.9  126  .99

          28 18  06 04.62  +27 57.4   3.133  2.840    23.5 /  94  15.9  112 1.00

          29 18  06 06.39  +27 55.7   3.119  2.836    23.4 /  94  15.9   98  .98

          30 18  06 08.15  +27 54.0   3.104  2.832    23.4 /  94  15.9   84  .93

          31 18  06 09.90  +27 52.1   3.089  2.828    23.3 /  95  15.8   69  .85

     Sept. 1 18  06 11.65  +27 50.2   3.075  2.825    23.2 /  95  15.8   55  .76

           2 18  06 13.40  +27 48.2   3.060  2.821    23.2 /  95  15.8   41  .65

           3 18  06 15.14  +27 46.1   3.045  2.817    23.1 /  95  15.8   27  .54

           4 18  06 16.87  +27 44.0   3.031  2.814    23.0 /  96  15.8   14  .43

           5 18  06 18.60  +27 41.7   3.016  2.810    23.0 /  96  15.8    1  .32

           6 18  06 20.32  +27 39.4   3.001  2.806    22.9 /  96  15.7   13  .22

           7 18  06 22.03  +27 37.0   2.986  2.803    22.8 /  96  15.7   25  .14

           8 18  06 23.74  +27 34.4   2.972  2.799    22.7 /  96  15.7   38  .08

           9 18  06 25.44  +27 31.9   2.957  2.796    22.7 /  97  15.7   50  .03

          10 18  06 27.13  +27 29.2   2.942  2.792    22.6 /  97  15.7   63  .01

          11 18  06 28.81  +27 26.4   2.927  2.789    22.5 /  97  15.7   75  .00

          12 18  06 30.49  +27 23.6   2.913  2.785    22.4 /  97  15.7   86  .01

          13 18  06 32.16  +27 20.7   2.898  2.782    22.3 /  98  15.6   98  .05

          14 18  06 33.82  +27 17.7   2.883  2.779    22.2 /  98  15.6  110  .09

          15 18  06 35.47  +27 14.6   2.868  2.775    22.1 /  98  15.6  121  .16

          16 18  06 37.11  +27 11.5   2.854  2.772    22.0 /  98  15.6  133  .23

          17 18  06 38.75  +27 08.3   2.839  2.769    21.9 /  99  15.6  144  .32

          18 18  06 40.37  +27 05.0   2.824  2.766    21.8 /  99  15.6  156  .41

          19 18  06 41.98  +27 01.6   2.809  2.763    21.7 /  99  15.6  167  .50

          20 18  06 43.59  +26 58.1   2.795  2.759    21.6 /  99  15.5  179  .60

          21 18  06 45.19  +26 54.6   2.780  2.756    21.5 / 100  15.5  168  .70

          22 18  06 46.77  +26 51.0   2.765  2.753    21.4 / 100  15.5  155  .79

          23 18  06 48.35  +26 47.3   2.751  2.750    21.3 / 100  15.5  142  .88

          24 18  06 49.91  +26 43.6   2.736  2.747    21.2 / 100  15.5  128  .94

          25 18  06 51.46  +26 39.8   2.722  2.744    21.1 / 101  15.5  114  .98

          26 18  06 53.01  +26 35.9   2.707  2.741    20.9 / 101  15.4  100 1.00

          27 18  06 54.54  +26 31.9   2.692  2.738    20.8 / 101  15.4   85  .99

          28 18  06 56.06  +26 27.9   2.678  2.735    20.7 / 101  15.4   70  .94

          29 18  06 57.57  +26 23.8   2.663  2.733    20.5 / 102  15.4   56  .88

          30 18  06 59.07  +26 19.6   2.649  2.730    20.4 / 102  15.4   41  .79

     Oct.  1 18  07 00.55  +26 15.4   2.634  2.727    20.3 / 102  15.4   27  .68

NAKANO

         **** Don't distribute anyone except personal use only ****

                (C) Copyright 2007 OAA/ComputingSection

write mail from CFAD0::NAKANO on 2007-08-21 04:50:00(JST).



    C/2006 S5 (Hill)

Epoch 2007 Dec. 6.0 TT = JDT 2454440.5  

T 2007 Dec. 9.77423 TT                                  Nakano

q   2.6305150            (2000.0)            P               Q

z  +0.0102875      Peri.  182.11295     -0.23581330     -0.95639469

 +/-0.0000421      Node   281.55983     +0.89416758     -0.14408136

e   0.9729387      Incl.   10.13155     +0.38060009     -0.25406645

P 958 years

From 183 observations 2006 Sept. 14-2007 Jan. 17, mean residual 0".60.





NAKANO

         **** Don't distribute anyone except personal use only ****

                (C) Copyright 2007 OAA/ComputingSection

write mail from CFAD0::NAKANO on 2007-02-11 07:48:38(JST).

 





    C/2006 S5 (Hill)

Epoch 2007 Dec. 6.0 TT = JDT 2454440.5  

T 2007 Dec. 9.75239 TT                                  Nakano

q   2.6304964            (2000.0)            P               Q

z  +0.0102747      Peri.  182.10906     -0.23578513     -0.95640215

 +/-0.0000621      Node   281.56200     +0.89416916     -0.14405451

e   0.9729724      Incl.   10.13145     +0.38061384     -0.25405357

P 960 years

From 169 observations 2006 Sept. 14-Dec. 26, mean residual 0".61.



NAKANO

         **** Don't distribute anyone except personal use only ****

                (C) Copyright 2007 OAA/ComputingSection

write mail from CFAD0::NAKANO on 2007-01-11 23:59:04(JST).

 



    C/2006 S5 (Hill)

Epoch 2007 Dec. 6.0 TT = JDT 2454440.5  

T 2007 Dec. 9.67133 TT                                  Nakano

q   2.6305218            (2000.0)            P               Q

z  +0.0102358      Peri.  182.10202     -0.23564099     -0.95643804

 +/-0.0000924      Node   281.56042     +0.89419273     -0.14392190

e   0.9730745      Incl.   10.13128     +0.38064772     -0.25399363

P 965.6 years

From 151 observations 2006 Sept. 14-Nov. 27, mean residual 0".64.



NAKANO

         **** Don't distribute anyone except personal use only ****

                (C) Copyright 2006 OAA/ComputingSection

write mail from CFAD0::NAKANO on 2006-12-06 04:14:31(JST).

 



    C/2006 S5 (Hill)

T 2007 Dec. 9.89278 TT                                  Nakano

q   2.6284406            (2000.0)            P               Q

z  +0.0100768      Peri.  182.16870     -0.23683620     -0.95614189

 +/-0.0002195      Node   281.56529     +0.89400634     -0.14503330

e   0.9735136      Incl.   10.13175     +0.38034363     -0.25447600

P 989 years

From 116 observations 2006 Sept. 14-Oct. 28.



NAKANO

         **** Don't distribute anyone except personal use only ****

                (C) Copyright 2006 OAA/ComputingSection

write mail from CFAD0::NAKANO on 2006-11-04 04:16:29(JST).

 

◎C/2006 S5の軌道と予報位置です



  ASOのシェロードから10月14日の観測が報告されました.氏のCCD全光度は

18.2等でした.彗星は,周期が1000年ほどの長周期彗星でした.CMESにある

山本速報2527にある軌道からのずれは赤経方向に-12",赤緯方向に-28"で

した.



    C/2006 S5 (Hill)

T 2007 Dec. 10.52967 TT                                 Nakano

q   2.6266123            (2000.0)            P               Q

z  +0.0100579      Peri.  182.22355     -0.23854578     -0.95571689

 +/-0.0007990      Node   281.61215     +0.89368883     -0.14659403

